Regional Weather Roundup
Issued by NWS

Home | Current Version | Previous Version | Text Only | Print | Product List | Glossary Off
Versions: 1 2 3 4 5 6 7 8 9 10 11 12 13 14 15 16 17 18 19 20 21 22 23 24 25 26 27 28 29 30 31 32 33 34 35 36 37 38 39 40 41 42 43 44 45 46 47 48 49 50

837
ASUS45 KBOI 251210
RWRID

IDAHO REGIONAL WEATHER ROUNDUP
NATIONAL WEATHER SERVICE BOISE ID
600 AM MDT TUE APR 25 2017

NOTE: "FAIR" INDICATES FEW OR NO CLOUDS BELOW 12000 FEET
WITH NO SIGNIFICANT WEATHER AND/OR OBSTRUCTIONS TO VISIBILITY

IDZ012-014-251300-
SOUTHWEST IDAHO


CITY           SKY/WX    TMP DP  RH WIND       PRES   REMARKS
BOISE          CLOUDY    43  36  76 NW12      29.86R
CALDWELL       PTCLDY    41  35  79 W12       29.89R
MOUNTAIN HOME  MOCLDY    42  41  99 NW14      29.85R
$$

IDZ016-017-251300-
SOUTHCENTRAL IDAHO


CITY           SKY/WX    TMP DP  RH WIND       PRES   REMARKS
BURLEY         CLOUDY    39  34  82 W20G36    29.75R WCI  29
JEROME         CLOUDY    38  36  92 SW23G32   29.78R WCI  27
TWIN FALLS     MOCLDY    36  35  96 W22G30    29.80S WCI  25
$$

IDZ019>023-251300-
SOUTHEAST IDAHO


CITY           SKY/WX    TMP DP  RH WIND       PRES   REMARKS
IDAHO FALLS    CLOUDY    37  36  96 SW15      29.70R WCI  28
POCATELLO      CLOUDY    39  36  89 W16       29.74R WCI  30
REXBURG        LGT RAIN  36  36 100 SW12      29.68S WCI  28
$$

IDZ006-010-011-018-031-032-251300-
CENTRAL IDAHO MOUNTAINS


CITY           SKY/WX    TMP DP  RH WIND       PRES   REMARKS
MCCALL         CLOUDY    33  31  92 W3        29.80R
HAILEY         PTCLDY    32  28  86 NW7       29.73S WCI  26
STANLEY          N/A     31  30  96 NW3       29.77R
SALMON         CLOUDY    36  34  93 N5        29.77R WCI  32
CHALLIS        CLOUDY    36  30  79 CALM      29.76R
$$

IDZ002-004-006-007-026-251300-
NORTHERN IDAHO


CITY           SKY/WX    TMP DP  RH WIND       PRES   REMARKS
LEWISTON       CLOUDY    48  45  89 CALM      29.87R
LOWELL           N/A     45  42  89 S5        29.88R
COEUR D`ALENE  CLOUDY    44  41  89 S5        29.83R
MULLAN PASS    FOG       31  30  96 VRB5      29.78R VSB 1/2 WCI  26
$$




USA.gov is the U.S. government's official web portal to all federal, state and local government web resources and services.